Location: Wanzleben
(52.0609°N, 11.4408°E)
Time: 16:21:01
(UTC+00:00)

NOSS 2-3 (E) - Pass Details

Date: 18 September 2020
Orbit: 574 x 1638 km, 63.4° (Epoch: 08 October)

Event Time Altitude Azimuth Distance (km) Brightness Sun altitude
Rises 17:56:31 0° 239° (WSW) 2,836 7.8 -6.2°
Reaches altitude 10° 17:58:37 10° 243° (WSW) 1,994 7.0 -6.5°
Maximum altitude 18:03:00 59° 324° (NW) 814 4.5 -7.2°
Drops below altitude 10° 18:08:25 10° 44° (NE) 2,457 6.3 -8.0°
Sets 18:11:15 0° 48° (NE) 3,566 7.1 -8.4°
